Radiation Dose at Monitoring Post of Fukushima Daini Nuclear Power Station
Date,Time,MP-1(microSv/h),MP-2(microSv/h),MP-3(microSv/h),MP-4(microSv/h),MP-5(microSv/h),MP-6(microSv/h),MP-7(microSv/h),Wind Direction,Wind Velocity(m/s),Rain
2021/11/24,00:00,0.158,0.144,0.225,0.220,0.224,0.123,0.079,west-northwest,9.2,No
2021/11/24,00:10,0.158,0.144,0.226,0.221,0.226,0.123,0.079,west,8.1,No
2021/11/24,00:20,0.157,0.144,0.226,0.220,0.225,0.124,0.078,west,7.7,No
2021/11/24,00:30,0.157,0.144,0.225,0.220,0.225,0.123,0.079,west,7.3,No
2021/11/24,00:40,0.158,0.144,0.225,0.220,0.226,0.122,0.078,west-northwest,6.3,No
2021/11/24,00:50,0.158,0.144,0.226,0.220,0.225,0.124,0.078,west,5.6,No
2021/11/24,01:00,0.158,0.144,0.225,0.219,0.223,0.123,0.078,west,5.2,No
2021/11/24,01:10,0.158,0.145,0.225,0.219,0.226,0.123,0.078,west,6.1,No
2021/11/24,01:20,0.158,0.143,0.225,0.221,0.226,0.123,0.078,west,7.6,No
2021/11/24,01:30,0.157,0.144,0.225,0.220,0.225,0.123,0.078,west,8.4,No
2021/11/24,01:40,0.157,0.144,0.224,0.219,0.224,0.123,0.078,west-northwest,8.1,No
2021/11/24,01:50,0.157,0.145,0.224,0.221,0.225,0.123,0.079,west-northwest,7.3,No
2021/11/24,02:00,0.157,0.143,0.224,0.220,0.224,0.124,0.078,west,9.8,No
2021/11/24,02:10,0.157,0.144,0.225,0.219,0.224,0.123,0.078,west,8.8,No
2021/11/24,02:20,0.159,0.145,0.225,0.221,0.225,0.123,0.079,west,10.3,No
2021/11/24,02:30,0.158,0.144,0.224,0.219,0.225,0.124,0.078,west,7.9,No
2021/11/24,02:40,0.156,0.143,0.225,0.219,0.224,0.123,0.078,west,6.2,No
2021/11/24,02:50,0.158,0.145,0.224,0.219,0.226,0.123,0.078,west-southwest,6.4,No
2021/11/24,03:00,0.157,0.144,0.225,0.219,0.226,0.123,0.078,west-southwest,6.2,No
2021/11/24,03:10,0.158,0.144,0.225,0.220,0.224,0.123,0.079,west-southwest,6.9,No
2021/11/24,03:20,0.156,0.145,0.225,0.220,0.226,0.123,0.078,west,6.2,No
2021/11/24,03:30,0.158,0.144,0.225,0.219,0.226,0.123,0.078,west,7.4,No
2021/11/24,03:40,0.157,0.144,0.224,0.221,0.225,0.124,0.079,west-southwest,7.0,No
2021/11/24,03:50,0.157,0.143,0.224,0.220,0.225,0.124,0.078,west-southwest,7.8,No
2021/11/24,04:00,0.157,0.143,0.224,0.220,0.226,0.124,0.078,west-southwest,7.3,No
2021/11/24,04:10,0.159,0.145,0.225,0.220,0.225,0.124,0.079,west-southwest,6.1,No
2021/11/24,04:20,0.156,0.144,0.225,0.220,0.226,0.123,0.078,west-southwest,7.9,No
2021/11/24,04:30,0.158,0.145,0.225,0.220,0.226,0.123,0.079,west,6.0,No
2021/11/24,04:40,0.158,0.145,0.225,0.219,0.226,0.123,0.078,west,6.9,No
2021/11/24,04:50,0.157,0.145,0.225,0.221,0.224,0.123,0.078,west,6.8,No
2021/11/24,05:00,0.158,0.144,0.225,0.220,0.225,0.123,0.078,west,7.7,No
2021/11/24,05:10,0.157,0.143,0.224,0.219,0.225,0.124,0.078,west,6.8,No
2021/11/24,05:20,0.158,0.144,0.224,0.220,0.225,0.124,0.078,west,7.7,No
2021/11/24,05:30,0.157,0.145,0.224,0.220,0.225,0.122,0.078,west,6.7,No
2021/11/24,05:40,0.157,0.144,0.225,0.220,0.226,0.124,0.078,west,6.1,No
2021/11/24,05:50,0.157,0.144,0.225,0.219,0.225,0.124,0.078,west,7.0,No
2021/11/24,06:00,0.157,0.145,0.224,0.221,0.224,0.123,0.079,west,6.8,No
2021/11/24,06:10,0.157,0.144,0.225,0.221,0.226,0.123,0.079,west,6.3,No
2021/11/24,06:20,0.157,0.145,0.225,0.219,0.226,0.123,0.079,west-southwest,6.9,No
2021/11/24,06:30,0.157,0.144,0.226,0.221,0.225,0.123,0.078,west,6.0,No
2021/11/24,06:40,0.158,0.145,0.225,0.221,0.225,0.123,0.079,west-southwest,6.2,No
2021/11/24,06:50,0.158,0.145,0.225,0.220,0.226,0.123,0.080,west,6.6,No
2021/11/24,07:00,0.157,0.144,0.225,0.219,0.226,0.124,0.078,west-southwest,6.4,No
2021/11/24,07:10,0.157,0.145,0.225,0.219,0.226,0.124,0.079,west-southwest,6.4,No
2021/11/24,07:20,0.158,0.144,0.224,0.220,0.225,0.123,0.078,west,6.3,No
2021/11/24,07:30,0.158,0.144,0.225,0.220,0.226,0.123,0.078,west-northwest,4.9,No
2021/11/24,07:40,0.157,0.144,0.224,0.219,0.225,0.124,0.079,west,5.1,No
2021/11/24,07:50,0.157,0.144,0.225,0.219,0.225,0.123,0.079,west-southwest,5.2,No
2021/11/24,08:00,0.157,0.144,0.225,0.219,0.226,0.122,0.078,west,4.9,No
2021/11/24,08:10,0.158,0.144,0.225,0.219,0.225,0.123,0.078,west-northwest,5.1,No
2021/11/24,08:20,0.157,0.144,0.225,0.218,0.226,0.123,0.078,west-northwest,4.6,No
2021/11/24,08:30,0.158,0.144,0.225,0.220,0.225,0.124,0.079,west,5.0,No
2021/11/24,08:40,0.158,0.144,0.225,0.219,0.225,0.123,0.079,west,6.9,No
2021/11/24,08:50,0.157,0.144,0.225,0.220,0.226,0.122,0.078,west-northwest,7.6,Yes
2021/11/24,09:00,0.157,0.144,0.225,0.220,0.226,0.123,0.079,west,9.5,Yes
2021/11/24,09:10,0.158,0.144,0.226,0.219,0.225,0.123,0.079,west,5.6,No
2021/11/24,09:20,0.158,0.143,0.225,0.219,0.226,0.124,0.078,west,6.2,No
2021/11/24,09:30,0.158,0.144,0.226,0.218,0.226,0.122,0.078,west,6.8,No
2021/11/24,09:40,0.157,0.143,0.225,0.220,0.225,0.124,0.079,west,4.6,No
2021/11/24,09:50,0.158,0.144,0.225,0.219,0.226,0.124,0.078,west,9.5,No
2021/11/24,10:00,0.157,0.144,0.225,0.219,0.224,0.124,0.078,west,9.5,No
2021/11/24,10:10,0.156,0.144,0.225,0.219,0.225,0.123,0.078,west,9.5,No
2021/11/24,10:20,0.158,0.144,0.225,0.219,0.224,0.123,0.079,west-northwest,10.3,No
2021/11/24,10:30,0.155,0.143,0.224,0.220,0.227,0.123,0.078,west,9.6,No
2021/11/24,10:40,0.158,0.144,0.224,0.219,0.225,0.124,0.079,west-southwest,9.0,No
2021/11/24,10:50,0.158,0.144,0.225,0.220,0.227,0.124,0.078,west,9.0,Yes
2021/11/24,11:00,0.157,0.144,0.224,0.220,0.224,0.123,0.079,west,10.7,No
2021/11/24,11:10,0.159,0.144,0.225,0.221,0.226,0.124,0.079,west,11.5,No
2021/11/24,11:20,0.157,0.143,0.225,0.221,0.225,0.124,0.078,west,7.7,Yes
2021/11/24,11:30,0.158,0.144,0.224,0.220,0.225,0.124,0.079,west,8.7,No
2021/11/24,11:40,0.156,0.144,0.224,0.221,0.224,0.123,0.079,west,7.9,No
2021/11/24,11:50,0.158,0.143,0.225,0.220,0.226,0.124,0.078,west,9.0,No
2021/11/24,12:00,0.157,0.144,0.225,0.221,0.225,0.123,0.079,west-northwest,7.4,No
2021/11/24,12:10,0.158,0.145,0.224,0.219,0.227,0.124,0.078,west,8.4,No
2021/11/24,12:20,0.157,0.144,0.226,0.221,0.225,0.123,0.079,west-northwest,10.1,No
2021/11/24,12:30,0.158,0.145,0.225,0.219,0.225,0.123,0.078,west,8.7,No
2021/11/24,12:40,0.157,0.144,0.225,0.219,0.225,0.124,0.079,west,7.8,No
2021/11/24,12:50,0.158,0.144,0.225,0.220,0.225,0.123,0.078,west,7.1,No
2021/11/24,13:00,0.157,0.143,0.225,0.220,0.225,0.124,0.078,west,9.0,No
2021/11/24,13:10,0.158,0.144,0.226,0.220,0.225,0.124,0.078,west-northwest,10.7,No
2021/11/24,13:20,0.158,0.144,0.225,0.218,0.227,0.123,0.079,west,10.1,No
2021/11/24,13:30,0.158,0.144,0.224,0.220,0.226,0.123,0.078,west-northwest,8.2,No
2021/11/24,13:40,0.159,0.144,0.225,0.220,0.228,0.124,0.078,west,8.3,No
2021/11/24,13:50,0.157,0.144,0.225,0.221,0.224,0.124,0.078,west,9.6,No
2021/11/24,14:00,0.157,0.144,0.226,0.220,0.226,0.123,0.078,west,8.1,No
2021/11/24,14:10,0.156,0.144,0.226,0.220,0.225,0.123,0.079,west-northwest,9.0,No
2021/11/24,14:20,0.157,0.144,0.227,0.222,0.225,0.122,0.078,west,7.1,No
2021/11/24,14:30,0.158,0.143,0.226,0.219,0.226,0.123,0.078,west,7.6,No
2021/11/24,14:40,0.157,0.144,0.225,0.221,0.225,0.123,0.078,west,9.0,No
2021/11/24,14:50,0.158,0.144,0.226,0.220,0.227,0.123,0.079,west-northwest,9.6,No
2021/11/24,15:00,0.159,0.144,0.226,0.220,0.222,0.123,0.078,west-northwest,10.0,No
2021/11/24,15:10,0.158,0.144,0.226,0.221,0.223,0.124,0.078,west,11.2,No
2021/11/24,15:20,0.157,0.145,0.225,0.221,0.225,0.123,0.078,west,11.1,No
2021/11/24,15:30,0.158,0.143,0.225,0.220,0.225,0.123,0.079,west-northwest,10.6,No
2021/11/24,15:40,0.157,0.144,0.226,0.223,0.226,0.123,0.078,west,6.8,No
2021/11/24,15:50,0.158,0.145,0.224,0.221,0.225,0.124,0.078,west,8.7,No
2021/11/24,16:00,0.158,0.144,0.225,0.221,0.225,0.123,0.078,west-northwest,9.2,No
2021/11/24,16:10,0.158,0.144,0.223,0.220,0.226,0.125,0.078,west,10.3,No
2021/11/24,16:20,0.157,0.144,0.224,0.220,0.226,0.124,0.079,west,6.8,No
2021/11/24,16:30,0.158,0.145,0.225,0.220,0.225,0.124,0.078,west,5.1,No
2021/11/24,16:40,0.158,0.145,0.225,0.221,0.226,0.124,0.078,west,7.3,No
2021/11/24,16:50,0.158,0.145,0.225,0.222,0.226,0.124,0.078,west,8.4,No
2021/11/24,17:00,0.158,0.145,0.226,0.220,0.226,0.124,0.078,west,5.5,No
2021/11/24,17:10,0.158,0.143,0.225,0.222,0.226,0.124,0.078,west,6.5,No
2021/11/24,17:20,0.158,0.145,0.225,0.221,0.225,0.124,0.079,west,9.2,No
2021/11/24,17:30,0.157,0.145,0.226,0.222,0.225,0.124,0.079,west,6.5,No
2021/11/24,17:40,0.158,0.145,0.226,0.220,0.225,0.125,0.079,west,6.2,No
2021/11/24,17:50,0.158,0.145,0.225,0.221,0.225,0.124,0.077,west,8.5,No
2021/11/24,18:00,0.158,0.145,0.224,0.221,0.226,0.123,0.078,west-northwest,6.6,No
2021/11/24,18:10,0.158,0.145,0.226,0.220,0.225,0.123,0.078,west,8.5,No
2021/11/24,18:20,0.158,0.144,0.225,0.220,0.226,0.124,0.078,west,8.1,No
2021/11/24,18:30,0.158,0.145,0.227,0.222,0.225,0.124,0.078,west-southwest,3.4,No
2021/11/24,18:40,0.158,0.145,0.226,0.221,0.225,0.124,0.078,west-southwest,2.3,No
2021/11/24,18:50,0.158,0.145,0.226,0.220,0.226,0.123,0.078,west,4.9,No
2021/11/24,19:00,0.158,0.143,0.226,0.221,0.226,0.123,0.079,west,3.3,No
2021/11/24,19:10,0.158,0.145,0.225,0.221,0.226,0.124,0.079,west,2.9,No
2021/11/24,19:20,0.159,0.145,0.225,0.221,0.226,0.123,0.078,west-southwest,3.6,No
2021/11/24,19:30,0.156,0.145,0.226,0.220,0.225,0.124,0.078,southwest,3.4,No
2021/11/24,19:40,0.158,0.145,0.226,0.220,0.225,0.123,0.079,southwest,2.3,No
2021/11/24,19:50,0.158,0.145,0.226,0.220,0.225,0.124,0.078,west-southwest,3.5,No
2021/11/24,20:00,0.158,0.144,0.226,0.221,0.226,0.124,0.079,west-southwest,4.4,No
2021/11/24,20:10,0.158,0.144,0.226,0.221,0.226,0.123,0.078,southwest,4.0,No
2021/11/24,20:20,0.158,0.145,0.226,0.221,0.225,0.124,0.079,west-southwest,4.9,No
2021/11/24,20:30,0.158,0.145,0.225,0.221,0.226,0.124,0.079,west-southwest,3.6,No
2021/11/24,20:40,0.158,0.145,0.226,0.220,0.225,0.124,0.078,west-southwest,4.0,No
2021/11/24,20:50,0.158,0.145,0.225,0.221,0.226,0.123,0.078,west-southwest,4.5,No
2021/11/24,21:00,0.158,0.145,0.226,0.221,0.226,0.124,0.079,west-southwest,3.7,No
2021/11/24,21:10,0.158,0.145,0.225,0.220,0.226,0.124,0.079,southwest,4.0,No
2021/11/24,21:20,0.158,0.144,0.225,0.220,0.226,0.123,0.079,west-southwest,4.1,No
2021/11/24,21:30,0.159,0.145,0.225,0.221,0.225,0.123,0.079,west-southwest,4.6,No
2021/11/24,21:40,0.157,0.145,0.226,0.222,0.226,0.124,0.078,west-southwest,4.2,No
2021/11/24,21:50,0.158,0.144,0.225,0.220,0.225,0.123,0.078,west-southwest,5.4,No
2021/11/24,22:00,0.158,0.144,0.225,0.220,0.225,0.124,0.079,west-southwest,4.3,No
2021/11/24,22:10,0.157,0.145,0.225,0.222,0.226,0.124,0.079,west-southwest,4.8,No
2021/11/24,22:20,0.159,0.145,0.226,0.221,0.226,0.123,0.078,west-southwest,5.5,No
2021/11/24,22:30,0.158,0.145,0.226,0.221,0.225,0.123,0.078,west-southwest,3.7,No
2021/11/24,22:40,0.158,0.146,0.225,0.221,0.226,0.124,0.078,west-southwest,6.2,No
2021/11/24,22:50,0.158,0.144,0.227,0.221,0.225,0.124,0.078,west-southwest,6.5,No
2021/11/24,23:00,0.158,0.144,0.226,0.220,0.225,0.124,0.078,west,6.4,No
2021/11/24,23:10,0.158,0.145,0.226,0.221,0.225,0.123,0.079,west-southwest,3.5,No
2021/11/24,23:20,0.158,0.144,0.225,0.220,0.227,0.123,0.078,south-southwest,1.3,No
2021/11/24,23:30,0.157,0.145,0.226,0.221,0.225,0.123,0.079,south,2.4,No
2021/11/24,23:40,0.158,0.145,0.226,0.221,0.225,0.124,0.079,south,2.5,No
2021/11/24,23:50,0.158,0.146,0.226,0.220,0.226,0.124,0.078,south-southwest,2.9,No
